Change the Weather History Date:

Friday, August 23, 2013

  Actual Average Record
Temperature  
Mean Temperature 83 °F -  
Max Temperature 98 °F 92 °F 106 °F (2011)
Min Temperature 70 °F 67 °F 63 °F (1997)
Cooling Degree Days 18    
Growing Degree Days 33 (Base 50)    
Moisture  
Dew Point 71 °F    
Average Humidity 68    
Maximum Humidity 93    
Minimum Humidity 47    
Precipitation  
Precipitation 0.00 in - - ()
Sea Level Pressure  
Sea Level Pressure 29.97 in    
Wind  
Wind Speed 7 mph (SE)    
Max Wind Speed 16 mph    
Max Gust Speed -    
Visibility 10 miles    
Events      
Averages and records for this station are not official NWS values.
T = Trace of Precipitation, MM = Missing Value Source: NWS Daily Summary

Daily Weather History Graph

Daily Weather History Graph

Search for Another Location

Airport or City:

Trip Planner

Search our weather history database for the weather conditions in past years. The results will help you decide how hot, cold, wet, or windy it might be!

Date:

Astronomy

Aug. 23, 2013 Rise Set
Actual Time 6:53 AM CDT 8:08 PM CDT
Civil Twilight 6:26 AM CDT 8:34 PM CDT
Nautical Twilight 5:54 AM CDT 9:06 PM CDT
Astronomical Twilight 5:21 AM CDT 9:39 PM CDT
Moon 9:35 PM CDT (8/23) 9:42 AM CDT (8/23)
Length of Visible Light 14h 08m
Length of Day
13h 14m
Waning Gibbous, 91% of the Moon is Illuminated
Aug 23
Waning Gibbous
Aug 28
Last Quarter
Sep 5
New
Sep 12
First Quarter
Sep 19
Full

Hourly Weather History & Observations

Time (CDT) Temp. Heat Index Dew Point Humidity Pressure Visibility Wind Dir Wind Speed Gust Speed Precip Events Conditions
12:53 AM 75.0 °F - 69.1 °F 82% 29.99 in 10.0 mi ESE 4.6 mph - N/A   Clear
1:53 AM 73.9 °F - 69.1 °F 85% 29.99 in 10.0 mi ESE 3.5 mph - N/A   Clear
2:53 AM 73.9 °F - 68.0 °F 82% 29.98 in 10.0 mi ESE 5.8 mph - N/A   Clear
3:53 AM 70.0 °F - 68.0 °F 93% 29.98 in 10.0 mi ESE 3.5 mph - N/A   Clear
4:53 AM 73.0 °F - 68.0 °F 84% 29.97 in 10.0 mi SE 5.8 mph - N/A   Clear
5:53 AM 73.9 °F - 68.0 °F 82% 29.97 in 10.0 mi SE 5.8 mph - N/A   Clear
6:53 AM 73.9 °F - 68.0 °F 82% 29.99 in 10.0 mi SE 6.9 mph - N/A   Clear
7:53 AM 75.0 °F - 68.0 °F 79% 30.00 in 9.0 mi SSE 5.8 mph - N/A   Mostly Cloudy
8:53 AM 78.1 °F - 69.1 °F 74% 30.01 in 9.0 mi SSE 5.8 mph - N/A   Clear
9:53 AM 84.9 °F 90.7 °F 72.0 °F 65% 30.01 in 10.0 mi South 9.2 mph - N/A   Clear
10:53 AM 89.1 °F 97.0 °F 73.0 °F 59% 30.01 in 10.0 mi South 8.1 mph - N/A   Clear
11:53 AM 91.9 °F 101.3 °F 73.9 °F 55% 29.99 in 10.0 mi South 8.1 mph - N/A   Clear
12:53 PM 95.0 °F 106.7 °F 75.0 °F 52% 29.98 in 10.0 mi SSE 5.8 mph - N/A   Clear
1:53 PM 96.1 °F 107.1 °F 73.9 °F 49% 29.97 in 10.0 mi Variable 5.8 mph - N/A   Clear
2:53 PM 96.1 °F 105.6 °F 73.0 °F 47% 29.95 in 10.0 mi South 8.1 mph - N/A   Scattered Clouds
3:53 PM 93.0 °F 104.6 °F 75.0 °F 56% 29.94 in 10.0 mi SE 16.1 mph - N/A   Mostly Cloudy
4:53 PM 91.9 °F 101.3 °F 73.9 °F 55% 29.93 in 10.0 mi SE 15.0 mph - N/A   Partly Cloudy
5:53 PM 91.0 °F 99.3 °F 73.0 °F 55% 29.93 in 10.0 mi SSE 11.5 mph - N/A   Partly Cloudy
6:53 PM 89.1 °F 96.0 °F 72.0 °F 57% 29.92 in 10.0 mi SE 9.2 mph - N/A   Partly Cloudy
7:53 PM 86.0 °F 90.1 °F 69.1 °F 57% 29.93 in 10.0 mi SE 13.8 mph - N/A   Partly Cloudy
8:53 PM 82.9 °F 85.8 °F 68.0 °F 60% 29.94 in 10.0 mi SE 11.5 mph - N/A   Scattered Clouds
9:53 PM 80.1 °F 83.2 °F 70.0 °F 71% 29.97 in 10.0 mi SE 6.9 mph - N/A   Partly Cloudy
10:53 PM 79.0 °F - 71.1 °F 77% 29.98 in 10.0 mi SE 6.9 mph - N/A   Partly Cloudy
11:53 PM 77.0 °F - 71.1 °F 82% 29.98 in 10.0 mi SSE 5.8 mph - N/A   Clear